This is the latest recevied weather packets stored in our database for station/object NQ9F. If no packets are shown the sender has not sent any weather packets the latest 10 day(s).
| Time | Temp. | Humidity | Pressure | Rain* | Wind** | Luminosity | Snow |
|---|---|---|---|---|---|---|---|
| 1777731671 | 15.56° C | 79% | 1022.5 hPa | 0 mm | - | 344 W/m² | - |
| 1777731369 | 15.56° C | 80% | 1022.4 hPa | 0 mm | - | 315 W/m² | - |
| 1777731066 | 15° C | 80% | 1022.4 hPa | 0 mm | - | 304 W/m² | - |
| 1777730765 | 15° C | 82% | 1022.3 hPa | 0 mm | - | 286 W/m² | - |
| 1777730460 | 14.44° C | 82% | 1022.4 hPa | 0 mm | - | 272 W/m² | - |
| 1777730157 | 14.44° C | 83% | 1022.2 hPa | 0 mm | - | 256 W/m² | - |
| 1777729854 | 14.44° C | 86% | 1022.1 hPa | 0 mm | - | 224 W/m² | - |
| 1777729550 | 13.89° C | 86% | 1022.2 hPa | 0 mm | - | 201 W/m² | - |
| 1777729247 | 13.89° C | 87% | 1022 hPa | 0 mm | - | 190 W/m² | - |
| 1777728944 | 13.33° C | 88% | 1021.8 hPa | 0 mm | - | 170 W/m² | - |
| 1777728641 | 13.33° C | 90% | 1022.2 hPa | 0 mm | - | 158 W/m² | - |
| 1777728337 | 12.78° C | 90% | 1021.9 hPa | 0 mm | - | 145 W/m² | - |
| 1777728034 | 12.78° C | 89% | 1022 hPa | 0 mm | - | 142 W/m² | - |
| 1777727731 | 12.22° C | 90% | 1021.8 hPa | 0 mm | - | 133 W/m² | - |
| 1777727428 | 12.22° C | 91% | 1021.9 hPa | 0 mm | - | 115 W/m² | - |
| 1777727125 | 12.22° C | 91% | 1021.8 hPa | 0 mm | - | 101 W/m² | - |
| 1777726824 | 11.67° C | 91% | 1021.8 hPa | 0 mm | - | 92 W/m² | - |
| 1777726520 | 11.67° C | 91% | 1021.7 hPa | 0 mm | - | 84 W/m² | - |
| 1777726217 | 11.67° C | 91% | 1021.6 hPa | 0 mm | - | 74 W/m² | - |
| 1777725914 | 11.11° C | 91% | 1021.7 hPa | 0 mm | - | 68 W/m² | - |
| 1777725611 | 11.11° C | 91% | 1021.4 hPa | 0 mm | - | 61 W/m² | - |
| 1777725309 | 11.11° C | 92% | 1021.4 hPa | 0 mm | - | 55 W/m² | - |
| 1777725005 | 10.56° C | 92% | 1021.3 hPa | 0 mm | - | 49 W/m² | - |
| 1777724701 | 10.56° C | 93% | 1021.3 hPa | 0 mm | - | 44 W/m² | - |
| 1777724399 | 10.56° C | 93% | 1021.3 hPa | 0 mm | - | 37 W/m² | - |
* Rain latest hour (hover to see other rain measurements)
** Current wind speed in m/s (hover to see current wind gust speed)